Regional Weather Roundup
Issued by NWS

Home | Current Version | Previous Version | Text Only | Print | Product List | Glossary On
Versions: 1 2 3 4 5 6 7 8 9 10 11 12 13 14 15 16 17 18 19 20 21 22 23 24 25 26 27 28 29 30 31 32 33 34 35 36 37 38 39 40 41 42 43 44 45 46 47 48 49 50
000
ASUS43 KLSX 080059
RWRMO

WEATHER SUMMARY FOR MISSOURI
NATIONAL WEATHER SERVICE SPRINGFIELD MO
800 PM CDT TUE JUL 07 2015

NOTE: "FAIR" INDICATES FEW OR NO CLOUDS BELOW 12,000 FEET WITH NO
       SIGNIFICANT WEATHER AND/OR OBSTRUCTIONS TO VISIBILITY.
       CURRENT SKY AND/OR WEATHER CONDITIONS ARE NOT AVAILABLE FOR
       CHILLICOTHE AND FARMINGTON.

MOZ001>031-035>038-043-044-053-054-080200-
...NORTHERN AND WESTERN MISSOURI...

CITY           SKY/WX    TMP DP  RH WIND       PRES   REMARKS
KANSAS CTY INT CLOUDY    69  59  70 NE8       30.05R
KANSAS C DTWN  CLOUDY    71  59  65 N8        30.04R
LEE`S SUMMIT   CLOUDY    69  60  73 NE7       30.05S
ST JOSEPH      CLOUDY    70  58  65 NE6       30.05S
CHILLICOTHE      N/A     71  60  68 N3        30.06R
KIRKSVILLE     MOCLDY    68  60  75 NE5       30.06R

$$
MOZ066>068-077>081-088>096-101>105-080200-
...SOUTHWEST MISSOURI...

CITY           SKY/WX    TMP DP  RH WIND       PRES   REMARKS
SPRINGFIELD    LGT RAIN  67  65  93 NE10      30.01S FOG
JOPLIN         CLOUDY    65  63  93 VRB6      30.03R

$$
MOZ032>034-039>042-045>050-055>058-069>072-080200-
...CENTRAL MISSOURI...

CITY           SKY/WX    TMP DP  RH WIND       PRES   REMARKS
COLUMBIA       LGT RAIN  67  65  93 E5        30.04S FOG
JEFFERSON CITY CLOUDY    67  63  87 E5        30.03S FOG
ROLLA          CLOUDY    65  63  93 NE8       30.03R FOG
SEDALIA        LGT RAIN  67  64  90 SE3       30.05R FOG
OSAGE BEACH    CLOUDY    64  63  94 NE5       30.04R

$$
MOZ051-052-059>065-080200-
...EAST CENTRAL MISSOURI...

CITY           SKY/WX    TMP DP  RH WIND       PRES   REMARKS
ST LOUIS INTL  CLOUDY    68  62  81 NE7       30.03R
SPIRIT OF STL  CLOUDY    67  65  93 NE7       30.02R
ST CHARLES     CLOUDY    68  63  84 NE7       30.02R

$$
MOZ072>076-082>087-097>100-106>115-080200-
...SOUTH CENTRAL AND SOUTHEAST MISSOURI...

CITY           SKY/WX    TMP DP  RH WIND       PRES   REMARKS
CAPE GIRARDEAU CLOUDY    76  74  93 W6        29.99S
FARMINGTON     CLOUDY    70  68  94 N5        30.07R
POPLAR BLUFF   CLOUDY    74  72  93 S8        30.00R
WEST PLAINS    CLOUDY    73  70  90 SW5       30.04R

$$


USA.gov is the U.S. government's official web portal to all federal, state and local government web resources and services.